When you browse on this site, cookies collect data to enhance your experience and personalize the content and advertising you see.
Visit our Privacy Policy to learn more. By continuing to use the site, you agree to this use of cookies and data.
  • en Suisse
  • Liste des pays
  • À 7 jours
  • Température de l'eau
  • Carte satellitaire
  • Carte météo
  • Widgets météo
  • user-avatar
    Se connecter

    Météo par heure à Bietigheim-Bissingen

    Ce jour, 26 Mai, Dimanche

    Heure Température Précipitation Vent Pression Humidité
    00:00 +12°C° 0 mm 1 m/s 741 mmHg 82%
    01:00 +12°C° 0 mm 1 m/s 741 mmHg 86%
    02:00 +11°C° 0 mm 1 m/s 741 mmHg 87%
    03:00 +11°C° 0 mm 1 m/s 741 mmHg 89%
    04:00 +11°C° 0 mm 1 m/s 741 mmHg 90%
    05:00 +12°C° 0 mm 1 m/s 741 mmHg 87%
    06:00 +13°C° 0 mm 1 m/s 741 mmHg 83%
    07:00 +15°C° 0 mm 1 m/s 741 mmHg 80%
    08:00 +16°C° 0 mm 1 m/s 741 mmHg 74%
    09:00 +18°C° 0 mm 2 m/s 741 mmHg 68%
    10:00 +19°C° 0 mm 2 m/s 741 mmHg 62%
    11:00 +20°C° 0 mm 2 m/s 740 mmHg 59%
    12:00 +21°C° 0 mm 2 m/s 740 mmHg 56%
    13:00 +23°C° 0 mm 2 m/s 740 mmHg 53%
    14:00 +22°C° 0 mm 3 m/s 740 mmHg 53%
    15:00 +22°C° 0 mm 3 m/s 739 mmHg 53%
    16:00 +22°C° 0 mm 3 m/s 739 mmHg 54%
    17:00 +21°C° 0 mm 3 m/s 738 mmHg 58%
    18:00 +20°C° 0 mm 2 m/s 738 mmHg 63%
    19:00 +19°C° 0 mm 2 m/s 738 mmHg 68%
    20:00 +17°C° 0 mm 2 m/s 738 mmHg 72%
    21:00 +16°C° 0 mm 2 m/s 738 mmHg 75%
    22:00 +14°C° 0 mm 1 m/s 739 mmHg 79%
    23:00 +14°C° 0 mm 1 m/s 738 mmHg 82%

    Demain, 27 Mai, Lundi

    Heure Température Précipitation Vent Pression Humidité
    00:00 +13°C° 0 mm 1 m/s 738 mmHg 84%
    01:00 +13°C° 0 mm 1 m/s 738 mmHg 87%
    02:00 +12°C° 0 mm 1 m/s 738 mmHg 88%
    03:00 +12°C° 0 mm 1 m/s 738 mmHg 88%
    04:00 +12°C° 0 mm 1 m/s 737 mmHg 89%
    05:00 +13°C° 0 mm 1 m/s 737 mmHg 85%
    06:00 +14°C° 0 mm 2 m/s 737 mmHg 82%
    07:00 +15°C° 0 mm 2 m/s 737 mmHg 78%
    08:00 +17°C° 0 mm 2 m/s 737 mmHg 75%
    09:00 +18°C° 0 mm 2 m/s 737 mmHg 72%
    10:00 +20°C° 0 mm 3 m/s 737 mmHg 69%
    11:00 +20°C° 0.4 mm 3 m/s 737 mmHg 71%
    12:00 +20°C° 0.4 mm 3 m/s 737 mmHg 73%
    13:00 +20°C° 0.4 mm 3 m/s 736 mmHg 75%
    14:00 +19°C° 0.3 mm 3 m/s 736 mmHg 77%
    15:00 +19°C° 0.3 mm 3 m/s 735 mmHg 79%
    16:00 +19°C° 0.3 mm 2 m/s 735 mmHg 81%
    17:00 +18°C° 0.2 mm 2 m/s 735 mmHg 82%
    18:00 +18°C° 0.2 mm 2 m/s 735 mmHg 82%
    19:00 +18°C° 0.2 mm 2 m/s 735 mmHg 83%
    20:00 +17°C° 0.1 mm 2 m/s 735 mmHg 86%
    21:00 +16°C° 0.1 mm 1 m/s 735 mmHg 88%
    22:00 +14°C° 0.1 mm 1 m/s 735 mmHg 90%
    23:00 +14°C° 0.1 mm 1 m/s 735 mmHg 91%

    Après-demain, 28 Mai, Mardi

    Heure Température Précipitation Vent Pression Humidité
    00:00 +13°C° 0.1 mm 1 m/s 735 mmHg 93%
    01:00 +13°C° 0.1 mm 1 m/s 735 mmHg 94%
    02:00 +13°C° 0.2 mm 1 m/s 735 mmHg 94%
    03:00 +13°C° 0.2 mm 1 m/s 735 mmHg 94%
    04:00 +13°C° 0.2 mm 1 m/s 735 mmHg 94%
    05:00 +13°C° 0.1 mm 2 m/s 735 mmHg 92%
    06:00 +14°C° 0.1 mm 2 m/s 735 mmHg 89%
    07:00 +13°C° 0.1 mm 3 m/s 735 mmHg 87%
    08:00 +14°C° 0.2 mm 3 m/s 735 mmHg 83%
    09:00 +14°C° 0.2 mm 4 m/s 735 mmHg 78%
    10:00 +14°C° 0.2 mm 5 m/s 735 mmHg 74%
    11:00 +15°C° 0 mm 4 m/s 735 mmHg 68%
    12:00 +17°C° 0 mm 4 m/s 735 mmHg 61%
    13:00 +18°C° 0 mm 4 m/s 735 mmHg 55%
    14:00 +18°C° 0.2 mm 4 m/s 735 mmHg 56%
    15:00 +18°C° 0.2 mm 4 m/s 735 mmHg 58%
    16:00 +17°C° 0.2 mm 5 m/s 735 mmHg 59%
    17:00 +17°C° 0.2 mm 4 m/s 735 mmHg 64%
    18:00 +15°C° 0.2 mm 4 m/s 735 mmHg 69%
    19:00 +14°C° 0.2 mm 3 m/s 736 mmHg 74%
    20:00 +13°C° 0 mm 3 m/s 736 mmHg 78%
    21:00 +11°C° 0 mm 3 m/s 737 mmHg 82%
    22:00 +10°C° 0 mm 2 m/s 737 mmHg 86%
    23:00 +10°C° 0 mm 2 m/s 737 mmHg 88%

    29 Mai, Mercredi

    Heure Température Précipitation Vent Pression Humidité
    00:00 +9°C° 0 mm 2 m/s 738 mmHg 90%
    01:00 +9°C° 0 mm 2 m/s 738 mmHg 92%
    02:00 +9°C° 0 mm 2 m/s 738 mmHg 93%
    03:00 +9°C° 0 mm 3 m/s 739 mmHg 94%
    04:00 +8°C° 0 mm 3 m/s 739 mmHg 95%
    05:00 +9°C° 0 mm 3 m/s 739 mmHg 92%
    06:00 +10°C° 0 mm 3 m/s 740 mmHg 89%
    07:00 +11°C° 0 mm 3 m/s 740 mmHg 86%
    08:00 +11°C° 0.1 mm 3 m/s 740 mmHg 83%
    09:00 +12°C° 0.1 mm 3 m/s 741 mmHg 80%
    10:00 +13°C° 0.1 mm 3 m/s 741 mmHg 78%
    11:00 +14°C° 0.3 mm 3 m/s 742 mmHg 76%
    12:00 +15°C° 0.3 mm 4 m/s 742 mmHg 74%
    13:00 +15°C° 0.3 mm 4 m/s 742 mmHg 72%
    14:00 +16°C° 0.6 mm 3 m/s 742 mmHg 72%
    15:00 +16°C° 0.6 mm 3 m/s 742 mmHg 73%
    16:00 +17°C° 0.6 mm 3 m/s 742 mmHg 74%
    17:00 +16°C° 0.3 mm 2 m/s 743 mmHg 76%
    18:00 +16°C° 0.3 mm 2 m/s 743 mmHg 78%
    19:00 +15°C° 0.3 mm 1 m/s 743 mmHg 80%
    20:00 +14°C° 0 mm 1 m/s 744 mmHg 82%
    21:00 +13°C° 0 mm 1 m/s 744 mmHg 85%
    22:00 +10°C° 0 mm 0 m/s 745 mmHg 87%
    23:00 +10°C° 0 mm 0 m/s 745 mmHg 88%

    30 Mai, Jeudi

    Heure Température Précipitation Vent Pression Humidité
    00:00 +9°C° 0 mm 0 m/s 746 mmHg 89%
    01:00 +10°C° 0 mm 1 m/s 746 mmHg 90%
    02:00 +9°C° 0 mm 1 m/s 746 mmHg 91%
    03:00 +9°C° 0 mm 1 m/s 746 mmHg 91%
    04:00 +9°C° 0 mm 1 m/s 746 mmHg 92%
    05:00 +10°C° 0 mm 1 m/s 746 mmHg 90%
    06:00 +11°C° 0 mm 1 m/s 747 mmHg 88%
    07:00 +13°C° 0 mm 1 m/s 747 mmHg 87%
    08:00 +14°C° 0 mm 1 m/s 747 mmHg 78%
    09:00 +16°C° 0 mm 2 m/s 747 mmHg 70%
    10:00 +18°C° 0 mm 2 m/s 747 mmHg 62%
    11:00 +19°C° 0 mm 2 m/s 746 mmHg 58%
    12:00 +20°C° 0 mm 3 m/s 746 mmHg 54%
    13:00 +21°C° 0 mm 3 m/s 746 mmHg 51%
    14:00 +21°C° 0 mm 3 m/s 746 mmHg 53%
    15:00 +21°C° 0 mm 4 m/s 745 mmHg 55%
    16:00 +21°C° 0 mm 4 m/s 745 mmHg 57%
    17:00 +20°C° 0.1 mm 4 m/s 745 mmHg 62%
    18:00 +19°C° 0.1 mm 3 m/s 745 mmHg 68%
    19:00 +18°C° 0.1 mm 3 m/s 745 mmHg 74%
    20:00 +17°C° 0 mm 3 m/s 745 mmHg 77%
    21:00 +16°C° 0 mm 3 m/s 745 mmHg 80%
    22:00 +14°C° 0 mm 3 m/s 746 mmHg 83%
    23:00 +14°C° 0.6 mm 3 m/s 745 mmHg 86%

    31 Mai, Vendredi

    Heure Température Précipitation Vent Pression Humidité
    00:00 +14°C° 0.6 mm 3 m/s 745 mmHg 90%
    01:00 +14°C° 0.6 mm 3 m/s 745 mmHg 94%
    02:00 +14°C° 1.5 mm 3 m/s 745 mmHg 94%
    03:00 +14°C° 1.5 mm 4 m/s 745 mmHg 95%
    04:00 +14°C° 1.5 mm 4 m/s 744 mmHg 95%
    05:00 +14°C° 0.5 mm 4 m/s 744 mmHg 95%
    06:00 +14°C° 0.5 mm 4 m/s 745 mmHg 94%
    07:00 +15°C° 0.5 mm 4 m/s 745 mmHg 93%
    08:00 +15°C° 0.4 mm 4 m/s 745 mmHg 91%
    09:00 +17°C° 0.4 mm 4 m/s 746 mmHg 90%
    10:00 +17°C° 0.4 mm 4 m/s 746 mmHg 89%
    11:00 +17°C° 0.9 mm 4 m/s 746 mmHg 87%
    12:00 +18°C° 0.9 mm 4 m/s 746 mmHg 86%
    13:00 +18°C° 0.9 mm 4 m/s 747 mmHg 85%
    14:00 +18°C° 1 mm 3 m/s 747 mmHg 84%
    15:00 +18°C° 1 mm 3 m/s 747 mmHg 83%
    16:00 +18°C° 1 mm 3 m/s 747 mmHg 83%
    17:00 +17°C° 0.4 mm 3 m/s 748 mmHg 83%
    18:00 +17°C° 0.4 mm 3 m/s 748 mmHg 82%
    19:00 +16°C° 0.4 mm 2 m/s 749 mmHg 82%
    20:00 +15°C° 0 mm 2 m/s 749 mmHg 83%
    21:00 +13°C° 0 mm 2 m/s 750 mmHg 84%
    22:00 +12°C° 0 mm 2 m/s 750 mmHg 86%
    23:00 +10°C° 0 mm 2 m/s 751 mmHg 86%
    Voir plus